START_TIME,STEP,MOV.,AL01,t_acc.,AL02,t_acc.,E37,t_acc.,H21,t_acc.
1979-08-01 15:00:33.180 ,1,0,0.,24.0,0.,24.0,0.,24.0,0.,24.0
1979-08-01 15:00:57.180 ,2,1,1.,24.0,0.,24.0,4.,24.0,0.,24.0
1979-08-01 15:01:21.180 ,2,0,1.,24.0,0.,24.0,0.,24.0,0.,24.0
1979-08-01 15:01:45.180 ,3,1,0.,24.0,0.,24.0,4.,24.0,0.,24.0
1979-08-01 15:02:09.180 ,3,0,0.,24.0,0.,24.0,0.,24.0,0.,24.0
1979-08-01 15:02:33.180 ,4,1,0.,24.0,0.,24.0,1.,24.0,0.,24.0
1979-08-01 15:02:57.180 ,4,0,0.,24.0,0.,24.0,0.,24.0,0.,24.0
1979-08-01 15:03:21.180 ,5,1,0.,24.0,1.,24.0,0.,24.0,0.,24.0
1979-08-01 15:03:45.180 ,5,0,0.,24.0,0.,24.0,0.,24.0,0.,24.0
1979-08-01 15:04:09.180 ,6,1,1.,24.0,0.,24.0,0.,24.0,0.,24.0
1979-08-01 15:04:33.180 ,6,0,0.,24.0,0.,24.0,0.,24.0,0.,24.0
1979-08-01 15:04:57.180 ,7,1,7.,24.0,0.,24.0,1.,24.0,0.,24.0
1979-08-01 15:05:21.180 ,0,0,1.,24.0,1.,24.0,1.,24.0,1.,24.0
1979-08-01 15:05:45.180 ,7,1,33.,24.0,0.,24.0,0.,24.0,0.,24.0
1979-08-01 15:06:09.180 ,7,0,21.,24.0,0.,24.0,0.,24.0,0.,24.0
1979-08-01 15:06:33.180 ,6,1,14.,24.0,0.,24.0,0.,24.0,0.,24.0
1979-08-01 15:06:57.180 ,6,0,1.,24.0,0.,24.0,2.,24.0,0.,24.0
1979-08-01 15:07:21.180 ,5,1,1.,24.0,0.,24.0,0.,24.0,0.,24.0
1979-08-01 15:07:45.180 ,5,0,1.,24.0,0.,24.0,2.,24.0,0.,24.0
1979-08-01 15:08:09.180 ,4,1,0.,24.0,0.,24.0,0.,24.0,0.,24.0
1979-08-01 15:08:33.180 ,4,0,0.,24.0,0.,24.0,0.,24.0,0.,24.0
1979-08-01 15:08:57.180 ,3,1,0.,24.0,0.,24.0,1.,24.0,0.,24.0
1979-08-01 15:09:21.180 ,3,0,0.,24.0,1.,24.0,0.,24.0,0.,24.0
1979-08-01 15:09:45.180 ,2,1,0.,24.0,0.,24.0,0.,24.0,0.,24.0
1979-08-01 15:10:09.180 ,2,0,0.,24.0,0.,24.0,0.,24.0,0.,24.0
1979-08-01 15:10:33.180 ,1,1,0.,24.0,0.,24.0,0.,24.0,0.,24.0
1979-08-01 15:10:57.180 ,1,0,0.,24.0,0.,24.0,0.,24.0,0.,24.0
1979-08-01 15:11:21.180 ,0,0,0.,24.0,0.,24.0,0.,24.0,0.,24.0
1979-08-01 15:11:45.180 ,0,0,0.,24.0,1.,24.0,1.,24.0,1.,24.0
1979-08-01 15:12:09.180 ,0,0,0.,24.0,0.,24.0,1.,24.0,0.,24.0
1979-08-01 15:12:33.180 ,0,0,0.,24.0,0.,24.0,0.,24.0,0.,24.0
1979-08-01 15:12:57.180 ,1,1,0.,24.0,0.,24.0,2.,24.0,0.,24.0
1979-08-01 15:13:21.180 ,1,0,0.,24.0,0.,24.0,0.,24.0,0.,24.0
1979-08-01 15:13:45.180 ,2,1,0.,24.0,1.,24.0,0.,24.0,0.,24.0
1979-08-01 15:14:09.180 ,2,0,0.,24.0,0.,24.0,0.,24.0,0.,24.0
1979-08-01 15:14:33.180 ,3,1,0.,24.0,0.,24.0,1.,24.0,0.,24.0
1979-08-01 15:14:57.180 ,3,0,0.,24.0,0.,24.0,2.,24.0,0.,24.0
1979-08-01 15:15:21.180 ,4,1,1.,24.0,0.,24.0,0.,24.0,0.,24.0
1979-08-01 15:15:45.180 ,4,0,0.,24.0,0.,24.0,0.,24.0,0.,24.0
1979-08-01 15:16:09.180 ,5,1,0.,24.0,0.,24.0,0.,24.0,0.,24.0
1979-08-01 15:16:33.180 ,5,0,0.,24.0,0.,24.0,1.,24.0,0.,24.0
1979-08-01 15:16:57.180 ,6,1,0.,24.0,0.,24.0,0.,24.0,0.,24.0
1979-08-01 15:17:21.180 ,6,0,0.,24.0,0.,24.0,4.,24.0,0.,24.0
1979-08-01 15:18:33.180 ,0,0,35.,24.0,0.,24.0,2.,24.0,0.,24.0
1979-08-01 15:18:57.180 ,0,0,37.,24.0,0.,24.0,0.,24.0,0.,24.0
1979-08-01 15:19:21.180 ,6,1,22.,24.0,0.,24.0,1.,24.0,0.,24.0
1979-08-01 15:19:45.180 ,6,0,1.,24.0,0.,24.0,1.,24.0,0.,24.0
1979-08-01 15:20:09.180 ,5,1,3.,24.0,0.,24.0,1.,24.0,0.,24.0
1979-08-01 15:20:33.180 ,5,0,0.,24.0,0.,24.0,0.,24.0,0.,24.0
1979-08-01 15:20:57.180 ,4,1,0.,24.0,0.,24.0,0.,24.0,0.,24.0
1979-08-01 15:21:21.180 ,4,0,0.,24.0,0.,24.0,1.,24.0,0.,24.0
1979-08-01 15:21:45.180 ,3,1,1.,24.0,0.,24.0,2.,24.0,0.,24.0
1979-08-01 15:22:09.180 ,3,0,1.,24.0,0.,24.0,0.,24.0,0.,24.0
1979-08-01 15:22:33.180 ,2,1,1.,24.0,0.,24.0,1.,24.0,0.,24.0
1979-08-01 15:22:57.180 ,2,0,0.,24.0,0.,24.0,0.,24.0,0.,24.0
1979-08-01 15:24:09.180 ,0,0,0.,24.0,0.,24.0,1.,24.0,0.,24.0
1979-08-01 15:24:33.180 ,0,0,0.,24.0,0.,24.0,1.,24.0,0.,24.0
1979-08-01 15:24:57.180 ,0,1,0.,24.0,0.,24.0,0.,24.0,0.,24.0
1979-08-01 15:25:21.180 ,0,0,1.,24.0,1.,24.0,0.,24.0,0.,24.0
1979-08-01 15:25:45.180 ,1,1,0.,24.0,0.,24.0,0.,24.0,0.,24.0
1979-08-01 15:26:09.180 ,1,0,0.,24.0,1.,24.0,0.,24.0,0.,24.0
1979-08-01 15:26:33.180 ,2,1,1.,24.0,0.,24.0,0.,24.0,0.,24.0
1979-08-01 15:26:57.180 ,2,0,0.,24.0,0.,24.0,1.,24.0,0.,24.0
1979-08-01 15:27:21.180 ,3,1,0.,24.0,0.,24.0,0.,24.0,0.,24.0
1979-08-01 15:27:45.180 ,3,0,0.,24.0,0.,24.0,1.,24.0,0.,24.0
1979-08-01 15:28:09.180 ,4,1,0.,24.0,0.,24.0,0.,24.0,0.,24.0
1979-08-01 15:28:33.180 ,4,0,0.,24.0,0.,24.0,2.,24.0,0.,24.0
1979-08-01 15:28:57.180 ,5,1,0.,24.0,0.,24.0,0.,24.0,0.,24.0
1979-08-01 15:29:21.180 ,5,0,0.,24.0,0.,24.0,1.,24.0,0.,24.0
1979-08-01 15:30:33.180 ,7,0,4.,24.0,0.,24.0,1.,24.0,0.,24.0
1979-08-01 15:30:57.180 ,7,0,37.,24.0,0.,24.0,2.,24.0,0.,24.0
1979-08-01 15:31:21.180 ,5,1,15.,24.0,0.,24.0,2.,24.0,0.,24.0
1979-08-01 15:31:45.180 ,1,1,0.,24.0,0.,24.0,1.,24.0,0.,24.0
1979-08-01 15:32:09.180 ,2,1,0.,24.0,0.,24.0,0.,24.0,0.,24.0
1979-08-01 15:32:33.180 ,6,0,0.,24.0,0.,24.0,0.,24.0,0.,24.0
1979-08-01 15:32:57.180 ,0,0,20.,24.0,0.,24.0,0.,24.0,0.,24.0
1979-08-01 15:33:21.180 ,1,1,0.,24.0,0.,24.0,0.,24.0,0.,24.0
1979-08-01 15:33:45.180 ,2,1,0.,24.0,0.,24.0,0.,24.0,0.,24.0
1979-08-01 15:34:09.180 ,6,1,0.,24.0,0.,24.0,1.,24.0,0.,24.0
1979-08-01 15:34:33.180 ,5,1,17.,24.0,0.,24.0,0.,24.0,0.,24.0
1979-08-01 15:34:57.180 ,1,1,0.,24.0,0.,24.0,1.,24.0,0.,24.0
1979-08-01 15:35:21.180 ,2,1,1.,24.0,0.,24.0,1.,24.0,0.,24.0
1979-08-01 15:35:45.180 ,6,1,0.,24.0,0.,24.0,1.,24.0,0.,24.0
1979-08-01 15:36:09.180 ,5,1,18.,24.0,1.,24.0,2.,24.0,0.,24.0
1979-08-01 15:36:33.180 ,1,1,0.,24.0,0.,24.0,0.,24.0,0.,24.0
1979-08-01 15:36:57.180 ,2,1,2.,24.0,0.,24.0,4.,24.0,0.,24.0
1979-08-01 15:37:21.180 ,6,1,0.,24.0,0.,24.0,2.,24.0,0.,24.0
1979-08-01 15:37:45.180 ,5,1,14.,24.0,0.,24.0,0.,24.0,0.,24.0
1979-08-01 15:38:09.180 ,1,1,0.,24.0,0.,24.0,0.,24.0,0.,24.0
1979-08-01 15:38:33.180 ,0,0,0.,24.0,0.,24.0,0.,24.0,0.,24.0
1979-08-01 15:38:57.180 ,0,0,,0,,0,,0,,0
1979-08-01 16:01:55.380 ,0,0,0.,24.0,1.,24.0,0.,24.0,0.,24.0
1979-08-01 16:02:09.180 ,0,0,0.,24.0,0.,24.0,0.,24.0,0.,24.0
1979-08-01 16:02:33.180 ,3,1,1.,24.0,0.,24.0,0.,24.0,0.,24.0
1979-08-01 16:02:57.180 ,3,0,0.,24.0,1.,24.0,1.,24.0,0.,24.0
1979-08-01 16:03:21.180 ,4,1,0.,24.0,0.,24.0,1.,24.0,0.,24.0
1979-08-01 16:03:45.180 ,4,0,0.,24.0,0.,24.0,0.,24.0,0.,24.0
1979-08-01 16:04:09.180 ,5,1,0.,24.0,0.,24.0,1.,24.0,0.,24.0
1979-08-01 16:04:33.180 ,5,0,0.,24.0,1.,24.0,2.,24.0,0.,24.0
1979-08-01 16:04:57.180 ,6,1,0.,24.0,0.,24.0,0.,24.0,0.,24.0
1979-08-01 16:05:21.180 ,6,0,0.,24.0,0.,24.0,0.,24.0,0.,24.0
1979-08-01 16:05:45.180 ,7,1,7.,24.0,0.,24.0,1.,24.0,0.,24.0
1979-08-01 16:06:09.180 ,7,0,27.,24.0,0.,24.0,0.,24.0,0.,24.0
1979-08-01 16:06:33.180 ,7,1,29.,24.0,0.,24.0,1.,24.0,0.,24.0
1979-08-01 16:06:57.180 ,7,0,36.,24.0,0.,24.0,1.,24.0,0.,24.0
1979-08-01 16:07:21.180 ,6,1,20.,24.0,0.,24.0,3.,24.0,0.,24.0
1979-08-01 16:07:45.180 ,6,0,0.,24.0,0.,24.0,0.,24.0,0.,24.0
1979-08-01 16:08:09.180 ,5,1,0.,24.0,0.,24.0,0.,24.0,0.,24.0
1979-08-01 16:08:33.180 ,5,0,0.,24.0,0.,24.0,0.,24.0,0.,24.0
1979-08-01 16:08:57.180 ,4,1,0.,24.0,0.,24.0,0.,24.0,0.,24.0
1979-08-01 16:09:21.180 ,4,0,1.,24.0,0.,24.0,0.,24.0,0.,24.0
1979-08-01 16:09:45.180 ,3,1,0.,24.0,0.,24.0,0.,24.0,0.,24.0
1979-08-01 16:10:09.180 ,3,0,0.,24.0,0.,24.0,0.,24.0,0.,24.0
1979-08-01 16:10:33.180 ,2,1,0.,24.0,1.,24.0,0.,24.0,0.,24.0
1979-08-01 16:10:57.180 ,2,0,1.,24.0,0.,24.0,0.,24.0,0.,24.0
1979-08-01 16:11:21.180 ,1,1,0.,24.0,0.,24.0,0.,24.0,0.,24.0
1979-08-01 16:11:45.180 ,1,0,0.,24.0,0.,24.0,1.,24.0,0.,24.0
1979-08-01 16:12:09.180 ,0,1,0.,24.0,0.,24.0,1.,24.0,0.,24.0
1979-08-01 16:12:33.180 ,0,0,0.,24.0,0.,24.0,0.,24.0,0.,24.0
1979-08-01 16:12:57.180 ,0,1,0.,24.0,0.,24.0,2.,24.0,0.,24.0
1979-08-01 16:13:21.180 ,0,0,0.,24.0,0.,24.0,0.,24.0,0.,24.0
1979-08-01 16:13:45.180 ,1,1,0.,24.0,0.,24.0,1.,24.0,0.,24.0
1979-08-01 16:14:09.180 ,1,0,0.,24.0,1.,24.0,0.,24.0,0.,24.0
1979-08-01 16:14:33.180 ,2,1,0.,24.0,0.,24.0,1.,24.0,0.,24.0
1979-08-01 16:14:57.180 ,2,0,0.,24.0,0.,24.0,1.,24.0,0.,24.0
1979-08-01 16:15:21.180 ,0,0,0.,24.0,0.,24.0,0.,24.0,0.,24.0
1979-08-01 16:15:45.180 ,0,0,1.,24.0,1.,24.0,0.,24.0,2.,24.0
1979-08-01 16:16:09.180 ,0,0,0.,24.0,0.,24.0,0.,24.0,0.,24.0
1979-08-01 16:16:33.180 ,0,0,0.,24.0,0.,24.0,0.,24.0,0.,24.0
1979-08-01 16:16:57.180 ,5,1,0.,24.0,0.,24.0,1.,24.0,0.,24.0
1979-08-01 16:17:21.180 ,5,0,1.,24.0,0.,24.0,1.,24.0,0.,24.0
1979-08-01 16:17:45.180 ,6,1,0.,24.0,0.,24.0,3.,24.0,0.,24.0
1979-08-01 16:18:09.180 ,6,0,0.,24.0,0.,24.0,2.,24.0,0.,24.0
1979-08-01 16:18:33.180 ,7,0,2.,24.0,0.,24.0,0.,24.0,0.,24.0
1979-08-01 16:18:57.180 ,7,0,23.,24.0,0.,24.0,0.,24.0,0.,24.0
1979-08-01 16:19:21.180 ,5,1,13.,24.0,0.,24.0,1.,24.0,0.,24.0
1979-08-01 16:19:45.180 ,1,1,0.,24.0,1.,24.0,1.,24.0,0.,24.0
1979-08-01 16:20:09.180 ,2,1,0.,24.0,0.,24.0,1.,24.0,0.,24.0
1979-08-01 16:20:33.180 ,6,1,0.,24.0,0.,24.0,0.,24.0,0.,24.0
1979-08-01 16:20:57.180 ,5,1,14.,24.0,0.,24.0,1.,24.0,0.,24.0
1979-08-01 16:21:21.180 ,1,1,0.,24.0,0.,24.0,0.,24.0,0.,24.0
1979-08-01 16:21:45.180 ,2,1,1.,24.0,1.,24.0,0.,24.0,0.,24.0
1979-08-01 16:22:09.180 ,6,1,0.,24.0,0.,24.0,0.,24.0,0.,24.0
1979-08-01 16:22:33.180 ,5,1,13.,24.0,0.,24.0,2.,24.0,0.,24.0
1979-08-01 16:22:57.180 ,1,1,1.,24.0,0.,24.0,0.,24.0,0.,24.0
1979-08-01 16:23:21.180 ,2,1,0.,24.0,0.,24.0,1.,24.0,0.,24.0
1979-08-01 16:23:45.180 ,6,1,0.,24.0,0.,24.0,0.,24.0,0.,24.0
1979-08-01 16:24:57.180 ,0,0,1.,24.0,1.,24.0,1.,24.0,0.,24.0
1979-08-01 16:25:21.180 ,6,1,0.,24.0,0.,24.0,0.,24.0,0.,24.0
1979-08-01 16:25:45.180 ,5,1,14.,24.0,0.,24.0,1.,24.0,0.,24.0
1979-08-01 16:26:09.180 ,1,1,0.,24.0,0.,24.0,0.,24.0,0.,24.0
1979-08-01 16:26:33.180 ,2,1,1.,24.0,0.,24.0,1.,24.0,0.,24.0
1979-08-01 16:26:57.180 ,6,1,1.,24.0,0.,24.0,1.,24.0,0.,24.0
1979-08-01 16:27:21.180 ,5,1,12.,24.0,0.,24.0,2.,24.0,0.,24.0
1979-08-01 16:27:45.180 ,1,1,0.,24.0,0.,24.0,0.,24.0,0.,24.0
1979-08-01 16:28:09.180 ,2,1,0.,24.0,0.,24.0,0.,24.0,0.,24.0
1979-08-01 16:28:33.180 ,6,1,0.,24.0,0.,24.0,0.,24.0,0.,24.0
1979-08-01 16:28:57.180 ,5,1,17.,24.0,0.,24.0,1.,24.0,0.,24.0
1979-08-01 16:29:21.180 ,1,1,1.,24.0,0.,24.0,0.,24.0,0.,24.0
1979-08-01 16:29:45.180 ,0,0,0.,24.0,0.,24.0,0.,24.0,0.,24.0
1979-08-01 16:30:09.180 ,0,0,0.,24.0,0.,24.0,0.,24.0,0.,24.0
1979-08-01 16:30:33.180 ,5,1,19.,24.0,0.,24.0,0.,24.0,0.,24.0
1979-08-01 16:30:57.180 ,5,0,0.,24.0,0.,24.0,2.,24.0,0.,24.0
1979-08-01 16:31:21.180 ,4,1,0.,24.0,0.,24.0,0.,24.0,0.,24.0
1979-08-01 16:31:45.180 ,4,0,0.,24.0,0.,24.0,1.,24.0,0.,24.0
1979-08-01 16:32:09.180 ,3,1,1.,24.0,0.,24.0,0.,24.0,0.,24.0
1979-08-01 16:32:33.180 ,3,0,1.,24.0,0.,24.0,0.,24.0,0.,24.0
1979-08-01 16:36:57.180 ,0,0,0.,24.0,0.,24.0,0.,24.0,0.,24.0
1979-08-01 16:37:21.180 ,0,0,1.,24.0,0.,24.0,0.,24.0,0.,24.0
1979-08-01 16:37:45.180 ,3,1,0.,24.0,0.,24.0,0.,24.0,0.,24.0
1979-08-01 16:38:09.180 ,3,0,1.,24.0,0.,24.0,0.,24.0,0.,24.0
1979-08-01 16:38:33.180 ,4,1,0.,24.0,0.,24.0,0.,24.0,0.,24.0
1979-08-01 16:38:57.180 ,4,0,0.,24.0,0.,24.0,1.,24.0,0.,24.0
1979-08-01 16:39:21.180 ,5,1,0.,24.0,1.,24.0,2.,24.0,0.,24.0
1979-08-01 16:39:45.180 ,5,0,0.,24.0,0.,24.0,1.,24.0,0.,24.0
1979-08-01 16:40:09.180 ,6,1,0.,24.0,0.,24.0,1.,24.0,0.,24.0
1979-08-01 16:40:33.180 ,6,0,0.,24.0,0.,24.0,0.,24.0,0.,24.0
1979-08-01 16:40:57.180 ,7,1,4.,24.0,0.,24.0,1.,24.0,0.,24.0
1979-08-01 16:41:21.180 ,0,0,0.,24.0,1.,24.0,1.,24.0,0.,24.0
1979-08-01 16:41:45.180 ,7,1,32.,24.0,0.,24.0,0.,24.0,0.,24.0
1979-08-01 16:42:09.180 ,7,0,40.,24.0,0.,24.0,3.,24.0,0.,24.0
1979-08-01 16:42:33.180 ,6,1,24.,24.0,0.,24.0,0.,24.0,0.,24.0
1979-08-01 16:42:57.180 ,6,0,0.,24.0,0.,24.0,1.,24.0,0.,24.0
1979-08-01 16:43:21.180 ,5,1,0.,24.0,0.,24.0,0.,24.0,0.,24.0
1979-08-01 16:43:45.180 ,5,0,0.,24.0,0.,24.0,0.,24.0,0.,24.0
1979-08-01 16:44:09.180 ,4,1,0.,24.0,0.,24.0,0.,24.0,0.,24.0
1979-08-01 16:44:33.180 ,4,0,0.,24.0,1.,24.0,0.,24.0,0.,24.0
1979-08-01 16:44:57.180 ,3,1,0.,24.0,0.,24.0,0.,24.0,0.,24.0
1979-08-01 16:45:21.180 ,3,0,2.,24.0,0.,24.0,0.,24.0,0.,24.0
1979-08-01 16:46:33.180 ,0,0,0.,24.0,0.,24.0,1.,24.0,0.,24.0
1979-08-01 16:46:57.180 ,0,0,0.,24.0,1.,24.0,2.,24.0,0.,24.0
1979-08-01 16:47:21.180 ,0,1,2.,24.0,0.,24.0,3.,24.0,0.,24.0
1979-08-01 16:47:45.180 ,0,0,0.,24.0,0.,24.0,1.,24.0,0.,24.0
1979-08-01 16:48:09.180 ,0,1,0.,24.0,0.,24.0,0.,24.0,0.,24.0
1979-08-01 16:48:33.180 ,0,0,1.,24.0,0.,24.0,1.,24.0,0.,24.0
1979-08-01 16:48:57.180 ,1,1,0.,24.0,0.,24.0,0.,24.0,0.,24.0
1979-08-01 16:49:21.180 ,1,0,0.,24.0,0.,24.0,1.,24.0,0.,24.0
1979-08-01 16:49:45.180 ,2,1,0.,24.0,0.,24.0,0.,24.0,0.,24.0
1979-08-01 16:50:09.180 ,2,0,1.,24.0,0.,24.0,0.,24.0,0.,24.0
1979-08-01 16:50:33.180 ,3,1,0.,24.0,0.,24.0,0.,24.0,0.,24.0
1979-08-01 16:50:57.180 ,3,0,0.,24.0,1.,24.0,0.,24.0,0.,24.0
1979-08-01 16:51:21.180 ,4,1,0.,24.0,0.,24.0,0.,24.0,0.,24.0
1979-08-01 16:51:45.180 ,4,0,0.,24.0,0.,24.0,1.,24.0,0.,24.0
1979-08-01 16:52:09.180 ,5,1,0.,24.0,0.,24.0,1.,24.0,0.,24.0
1979-08-01 16:52:33.180 ,5,0,0.,24.0,0.,24.0,3.,24.0,0.,24.0
1979-08-01 16:52:57.180 ,6,1,0.,24.0,0.,24.0,1.,24.0,0.,24.0
1979-08-01 16:53:21.180 ,6,0,1.,24.0,0.,24.0,2.,24.0,0.,24.0
1979-08-01 16:53:45.180 ,7,1,5.,24.0,1.,24.0,1.,24.0,0.,24.0
1979-08-01 16:54:09.180 ,7,0,27.,24.0,0.,24.0,0.,24.0,0.,24.0
1979-08-01 16:54:33.180 ,7,1,30.,24.0,1.,24.0,1.,24.0,0.,24.0
1979-08-01 16:54:57.180 ,7,0,23.,24.0,0.,24.0,0.,24.0,0.,24.0
1979-08-01 16:55:21.180 ,6,1,32.,24.0,0.,24.0,1.,24.0,0.,24.0
1979-08-01 16:55:45.180 ,6,0,1.,24.0,0.,24.0,2.,24.0,0.,24.0
1979-08-01 16:56:09.180 ,5,1,0.,24.0,0.,24.0,1.,24.0,0.,24.0
1979-08-01 16:56:33.180 ,5,0,0.,24.0,0.,24.0,0.,24.0,0.,24.0
1979-08-01 16:56:57.180 ,4,1,1.,24.0,0.,24.0,1.,24.0,0.,24.0
1979-08-01 16:57:21.180 ,4,0,0.,24.0,0.,24.0,0.,24.0,0.,24.0
1979-08-01 16:58:33.180 ,0,0,0.,24.0,0.,24.0,0.,24.0,0.,24.0
1979-08-01 16:58:57.180 ,0,0,0.,24.0,0.,24.0,0.,24.0,0.,24.0
1979-08-01 16:59:21.180 ,1,1,0.,24.0,0.,24.0,0.,24.0,0.,24.0
1979-08-01 16:59:45.180 ,1,0,1.,24.0,0.,24.0,0.,24.0,0.,24.0
1979-08-01 17:00:09.180 ,0,1,0.,24.0,0.,24.0,0.,24.0,0.,24.0
1979-08-01 17:00:33.180 ,0,0,1.,24.0,0.,24.0,0.,24.0,0.,24.0
1979-08-01 17:00:57.180 ,0,1,0.,24.0,0.,24.0,2.,24.0,0.,24.0
1979-08-01 17:01:21.180 ,0,0,1.,24.0,0.,24.0,1.,24.0,0.,24.0
1979-08-01 17:01:45.180 ,1,1,0.,24.0,0.,24.0,1.,24.0,0.,24.0
1979-08-01 17:02:09.180 ,1,0,0.,24.0,0.,24.0,0.,24.0,0.,24.0
1979-08-01 17:03:21.170 ,0,0,0.,24.0,0.,24.0,1.,24.0,0.,24.0
1979-08-01 17:03:45.170 ,0,0,0.,24.0,0.,24.0,0.,24.0,0.,24.0
1979-08-01 17:04:09.170 ,4,1,0.,24.0,0.,24.0,2.,24.0,0.,24.0
1979-08-01 17:04:33.170 ,4,0,0.,24.0,1.,24.0,1.,24.0,0.,24.0
1979-08-01 17:04:57.170 ,5,1,0.,24.0,0.,24.0,0.,24.0,0.,24.0
1979-08-01 17:05:21.170 ,5,0,0.,24.0,0.,24.0,1.,24.0,0.,24.0
1979-08-01 17:05:45.170 ,6,1,0.,24.0,0.,24.0,5.,24.0,0.,24.0
1979-08-01 17:06:09.170 ,6,0,1.,24.0,0.,24.0,0.,24.0,0.,24.0
1979-08-01 17:06:33.170 ,7,0,7.,24.0,0.,24.0,0.,24.0,0.,24.0
1979-08-01 17:06:57.170 ,7,0,25.,24.0,0.,24.0,2.,24.0,0.,24.0
1979-08-01 17:07:21.170 ,5,1,16.,24.0,0.,24.0,0.,24.0,0.,24.0
1979-08-01 17:07:45.170 ,1,1,0.,24.0,0.,24.0,2.,24.0,0.,24.0
1979-08-01 17:08:09.170 ,2,1,0.,24.0,0.,24.0,2.,24.0,0.,24.0
1979-08-01 17:08:33.170 ,6,1,0.,24.0,0.,24.0,1.,24.0,0.,24.0
1979-08-01 17:08:57.170 ,5,1,18.,24.0,0.,24.0,1.,24.0,0.,24.0
1979-08-01 17:09:21.170 ,1,1,0.,24.0,0.,24.0,0.,24.0,0.,24.0
1979-08-01 17:10:33.170 ,0,0,18.,24.0,0.,24.0,1.,24.0,0.,24.0
1979-08-01 17:10:57.170 ,1,1,0.,24.0,0.,24.0,0.,24.0,0.,24.0
1979-08-01 17:11:21.170 ,2,1,1.,24.0,0.,24.0,0.,24.0,0.,24.0
1979-08-01 17:11:45.170 ,6,1,0.,24.0,0.,24.0,0.,24.0,0.,24.0
1979-08-01 17:12:09.170 ,5,1,15.,24.0,0.,24.0,4.,24.0,0.,24.0
1979-08-01 17:12:33.170 ,1,1,0.,24.0,0.,24.0,2.,24.0,0.,24.0
1979-08-01 17:12:57.170 ,2,1,0.,24.0,0.,24.0,2.,24.0,0.,24.0
1979-08-01 17:13:21.170 ,6,1,0.,24.0,0.,24.0,0.,24.0,0.,24.0
1979-08-01 17:13:45.170 ,5,1,14.,24.0,0.,24.0,1.,24.0,0.,24.0
1979-08-01 17:14:09.170 ,1,1,0.,24.0,0.,24.0,0.,24.0,0.,24.0
1979-08-01 17:14:33.170 ,0,0,0.,24.0,0.,24.0,1.,24.0,0.,24.0
1979-08-01 17:14:57.170 ,0,0,1.,24.0,0.,24.0,0.,24.0,0.,24.0
1979-08-01 17:15:21.170 ,0,0,14.,24.0,0.,24.0,2.,24.0,0.,24.0
1979-08-01 17:15:45.170 ,1,1,0.,24.0,0.,24.0,2.,24.0,0.,24.0
1979-08-01 17:16:09.170 ,2,1,0.,24.0,0.,24.0,0.,24.0,0.,24.0
1979-08-01 17:16:33.170 ,6,1,0.,24.0,0.,24.0,0.,24.0,0.,24.0
1979-08-01 17:16:57.170 ,5,1,16.,24.0,0.,24.0,1.,24.0,0.,24.0
1979-08-01 17:17:21.170 ,1,1,0.,24.0,0.,24.0,1.,24.0,0.,24.0
1979-08-01 17:17:45.170 ,0,0,1.,24.0,0.,24.0,1.,24.0,0.,24.0
1979-08-01 17:18:09.170 ,0,0,0.,24.0,0.,24.0,1.,24.0,0.,24.0
1979-08-01 17:18:33.170 ,5,1,13.,24.0,0.,24.0,2.,24.0,0.,24.0
1979-08-01 17:18:57.170 ,5,0,0.,24.0,0.,24.0,2.,24.0,0.,24.0
1979-08-01 17:19:21.170 ,4,1,1.,24.0,0.,24.0,0.,24.0,0.,24.0
1979-08-01 17:19:45.170 ,4,0,0.,24.0,0.,24.0,0.,24.0,0.,24.0
1979-08-01 17:20:09.170 ,3,1,0.,24.0,0.,24.0,2.,24.0,0.,24.0
1979-08-01 17:20:33.170 ,3,0,0.,24.0,0.,24.0,1.,24.0,0.,24.0
1979-08-01 17:20:57.170 ,2,1,1.,24.0,0.,24.0,1.,24.0,0.,24.0
1979-08-01 17:21:21.170 ,2,0,0.,24.0,0.,24.0,0.,24.0,0.,24.0
1979-08-01 17:21:45.170 ,1,1,0.,24.0,0.,24.0,0.,24.0,0.,24.0
1979-08-01 17:22:09.170 ,1,0,0.,24.0,0.,24.0,1.,24.0,0.,24.0
1979-08-01 17:22:33.170 ,0,1,0.,24.0,0.,24.0,2.,24.0,0.,24.0
1979-08-01 17:22:57.170 ,0,0,0.,24.0,0.,24.0,1.,24.0,0.,24.0
1979-08-01 17:23:21.170 ,0,1,0.,24.0,0.,24.0,2.,24.0,0.,24.0
1979-08-01 17:23:45.170 ,0,0,0.,24.0,0.,24.0,1.,24.0,0.,24.0
1979-08-01 17:24:09.170 ,1,1,0.,24.0,0.,24.0,0.,24.0,0.,24.0
1979-08-01 17:24:33.170 ,1,0,0.,24.0,0.,24.0,1.,24.0,0.,24.0
1979-08-01 17:24:57.170 ,2,1,0.,24.0,0.,24.0,4.,24.0,0.,24.0
1979-08-01 17:25:21.170 ,2,0,0.,24.0,0.,24.0,0.,24.0,0.,24.0
1979-08-01 17:25:45.170 ,3,1,0.,24.0,1.,24.0,0.,24.0,0.,24.0
1979-08-01 17:26:09.170 ,3,0,0.,24.0,1.,24.0,0.,24.0,0.,24.0
1979-08-01 17:26:33.170 ,4,1,0.,24.0,0.,24.0,0.,24.0,0.,24.0
1979-08-01 17:26:57.170 ,4,0,0.,24.0,0.,24.0,1.,24.0,0.,24.0
1979-08-01 17:28:09.170 ,0,0,0.,24.0,0.,24.0,0.,24.0,0.,24.0
1979-08-01 17:28:33.170 ,0,0,0.,24.0,0.,24.0,0.,24.0,0.,24.0
1979-08-01 17:28:57.170 ,7,1,5.,24.0,0.,24.0,0.,24.0,0.,24.0
1979-08-01 17:29:21.170 ,7,0,26.,24.0,0.,24.0,0.,24.0,0.,24.0
1979-08-01 17:29:45.170 ,7,1,29.,24.0,0.,24.0,2.,24.0,0.,24.0
1979-08-01 17:30:09.170 ,7,0,28.,24.0,0.,24.0,1.,24.0,0.,24.0
1979-08-01 17:30:33.170 ,6,1,26.,24.0,0.,24.0,0.,24.0,0.,24.0
1979-08-01 17:30:57.170 ,6,0,0.,24.0,0.,24.0,0.,24.0,0.,24.0
1979-08-01 17:32:09.170 ,0,0,1.,24.0,0.,24.0,1.,24.0,0.,24.0
1979-08-01 17:32:33.170 ,0,0,0.,24.0,0.,24.0,1.,24.0,0.,24.0
1979-08-01 17:32:57.170 ,3,1,0.,24.0,0.,24.0,0.,24.0,0.,24.0
1979-08-01 17:33:21.170 ,3,0,0.,24.0,0.,24.0,1.,24.0,0.,24.0
1979-08-01 17:33:45.170 ,2,1,0.,24.0,1.,24.0,0.,24.0,0.,24.0
1979-08-01 17:34:09.170 ,2,0,1.,24.0,0.,24.0,1.,24.0,0.,24.0
1979-08-01 17:34:33.170 ,1,1,1.,24.0,0.,24.0,0.,24.0,0.,24.0
1979-08-01 17:34:57.170 ,1,0,0.,24.0,0.,24.0,1.,24.0,0.,24.0
1979-08-01 17:35:21.170 ,0,1,1.,24.0,0.,24.0,0.,24.0,0.,24.0
1979-08-01 17:35:45.170 ,0,0,0.,24.0,0.,24.0,0.,24.0,0.,24.0
1979-08-01 17:36:09.170 ,0,1,0.,24.0,0.,24.0,0.,24.0,0.,24.0
1979-08-01 17:36:33.170 ,0,0,0.,24.0,0.,24.0,1.,24.0,0.,24.0
1979-08-01 17:36:57.170 ,1,1,0.,24.0,0.,24.0,1.,24.0,0.,24.0
1979-08-01 17:37:21.170 ,1,0,0.,24.0,0.,24.0,0.,24.0,0.,24.0
1979-08-01 17:37:45.170 ,2,1,1.,24.0,0.,24.0,1.,24.0,0.,24.0
1979-08-01 17:38:09.170 ,2,0,0.,24.0,0.,24.0,0.,24.0,0.,24.0
1979-08-01 17:38:33.170 ,3,1,0.,24.0,0.,24.0,0.,24.0,0.,24.0
1979-08-01 17:38:57.170 ,3,0,0.,24.0,0.,24.0,0.,24.0,0.,24.0
1979-08-01 17:39:21.170 ,4,1,0.,24.0,0.,24.0,0.,24.0,0.,24.0
1979-08-01 17:39:45.170 ,4,0,0.,24.0,0.,24.0,2.,24.0,0.,24.0
1979-08-01 17:40:57.170 ,0,0,0.,24.0,0.,24.0,1.,24.0,0.,24.0
1979-08-01 17:41:21.170 ,0,0,0.,24.0,0.,24.0,1.,24.0,0.,24.0
1979-08-01 17:41:45.170 ,7,1,9.,24.0,0.,24.0,1.,24.0,0.,24.0
1979-08-01 17:42:09.170 ,7,0,33.,24.0,0.,24.0,0.,24.0,0.,24.0
1979-08-01 17:42:33.170 ,7,1,28.,24.0,0.,24.0,0.,24.0,0.,24.0
1979-08-01 17:42:57.170 ,7,0,39.,24.0,0.,24.0,1.,24.0,0.,24.0
1979-08-01 17:43:21.170 ,6,1,19.,24.0,0.,24.0,1.,24.0,0.,24.0
1979-08-01 17:43:45.170 ,6,0,1.,24.0,0.,24.0,3.,24.0,0.,24.0
1979-08-01 17:44:09.170 ,5,1,0.,24.0,0.,24.0,0.,24.0,0.,24.0
1979-08-01 17:44:33.170 ,5,0,0.,24.0,0.,24.0,1.,24.0,0.,24.0
1979-08-01 17:44:57.170 ,4,1,0.,24.0,0.,24.0,0.,24.0,0.,24.0
1979-08-01 17:45:21.170 ,4,0,0.,24.0,0.,24.0,2.,24.0,0.,24.0
1979-08-01 17:45:45.170 ,3,1,0.,24.0,0.,24.0,4.,24.0,0.,24.0
1979-08-01 17:46:09.170 ,3,0,0.,24.0,0.,24.0,0.,24.0,0.,24.0
1979-08-01 17:46:33.170 ,2,1,0.,24.0,0.,24.0,0.,24.0,0.,24.0
1979-08-01 17:46:57.170 ,2,0,0.,24.0,0.,24.0,2.,24.0,0.,24.0
1979-08-01 17:47:21.170 ,1,1,0.,24.0,0.,24.0,0.,24.0,0.,24.0
1979-08-01 17:47:45.170 ,1,0,1.,24.0,0.,24.0,0.,24.0,0.,24.0
1979-08-01 17:48:09.170 ,0,1,1.,24.0,0.,24.0,0.,24.0,0.,24.0
1979-08-01 17:48:33.170 ,0,0,1.,24.0,0.,24.0,3.,24.0,0.,24.0
1979-08-01 17:49:45.170 ,0,0,0.,24.0,0.,24.0,1.,24.0,0.,24.0
1979-08-01 17:50:09.170 ,0,0,0.,24.0,0.,24.0,1.,24.0,0.,24.0
1979-08-01 17:50:33.170 ,2,1,0.,24.0,0.,24.0,2.,24.0,0.,24.0
1979-08-01 17:50:57.170 ,2,0,0.,24.0,0.,24.0,0.,24.0,0.,24.0
1979-08-01 17:51:21.170 ,3,1,0.,24.0,0.,24.0,0.,24.0,0.,24.0
1979-08-01 17:51:45.170 ,3,0,0.,24.0,0.,24.0,2.,24.0,0.,24.0
1979-08-01 17:52:09.170 ,4,1,0.,24.0,0.,24.0,1.,24.0,0.,24.0
1979-08-01 17:52:33.170 ,4,0,0.,24.0,0.,24.0,0.,24.0,0.,24.0
1979-08-01 17:52:57.170 ,5,1,0.,24.0,0.,24.0,1.,24.0,0.,24.0
1979-08-01 17:53:21.170 ,5,0,0.,24.0,0.,24.0,1.,24.0,0.,24.0
1979-08-01 17:53:45.170 ,6,1,0.,24.0,0.,24.0,1.,24.0,0.,24.0
1979-08-01 17:54:09.170 ,6,0,1.,24.0,0.,24.0,1.,24.0,0.,24.0
1979-08-01 17:54:33.170 ,7,0,11.,24.0,0.,24.0,1.,24.0,0.,24.0
1979-08-01 17:54:57.170 ,7,0,37.,24.0,0.,24.0,0.,24.0,0.,24.0
1979-08-01 17:55:21.170 ,5,1,15.,24.0,0.,24.0,2.,24.0,0.,24.0
1979-08-01 17:55:45.170 ,1,1,0.,24.0,0.,24.0,1.,24.0,0.,24.0
1979-08-01 17:56:09.170 ,2,1,1.,24.0,0.,24.0,0.,24.0,0.,24.0
1979-08-01 17:56:33.170 ,6,1,0.,24.0,0.,24.0,3.,24.0,0.,24.0
1979-08-01 17:56:57.170 ,5,1,21.,24.0,0.,24.0,3.,24.0,0.,24.0
1979-08-01 17:57:21.170 ,1,1,0.,24.0,0.,24.0,1.,24.0,0.,24.0
1979-08-01 17:58:33.170 ,0,0,26.,24.0,0.,24.0,2.,24.0,0.,24.0
1979-08-01 17:58:57.170 ,1,1,0.,24.0,0.,24.0,1.,24.0,0.,24.0
1979-08-01 17:59:21.170 ,2,1,0.,24.0,0.,24.0,2.,24.0,0.,24.0
1979-08-01 17:59:45.170 ,6,1,0.,24.0,0.,24.0,0.,24.0,0.,24.0
1979-08-01 18:00:09.170 ,5,1,20.,24.0,0.,24.0,4.,24.0,0.,24.0
